| time (UTC) | temp F | wind direction | speed MPH | gust MPH | rain 1hr in | rain 24hr in | rain mn in | humidity % | barometer mb |
| 20260902003017 | 84 | 0.0 | 0.0 | 0.00 | 0.00 | 0.00 | 74 | 1019.9 | |
| 20260902002522 | 84 | 0.0 | 0.0 | 0.00 | 0.00 | 0.00 | 74 | 1019.8 | |
| 20260902002016 | 85 | 0.0 | 0.0 | 0.00 | 0.00 | 0.00 | 74 | 1020.0 | |
| 20260902001516 | 85 | 0.0 | 0.0 | 0.00 | 0.00 | 0.00 | 73 | 1020.0 | |
| 20260902001016 | 86 | 0.0 | 0.0 | 0.00 | 0.00 | 0.00 | 72 | 1020.0 | |
| 20260902000517 | 86 | 0.0 | 0.0 | 0.00 | 0.00 | 0.00 | 71 | 1020.0 | |
| 20260902000018 | 86 | 0.0 | 0.0 | 0.00 | 0.00 | 0.00 | 71 | 1020.1 | |
| 20260901235522 | 87 | 0.0 | 0.0 | 0.00 | 0.00 | 0.00 | 71 | 1020.1 | |
| 20260901235020 | 87 | 0.0 | 0.0 | 0.00 | 0.00 | 0.00 | 72 | 1020.1 | |
| 20260901234517 | 87 | 0.0 | 1.0 | 0.00 | 0.00 | 0.00 | 71 | 1020.2 | |
| 20260901234019 | 88 | 0.0 | 0.0 | 0.00 | 0.00 | 0.00 | 71 | 1020.2 | |
| 20260901233516 | 88 | 0.0 | 0.0 | 0.00 | 0.00 | 0.00 | 71 | 1020.3 | |
| 20260901233017 | 88 | 0.0 | 0.0 | 0.00 | 0.00 | 0.00 | 70 | 1020.3 | |
| 20260901232517 | 89 | 0.0 | 0.0 | 0.00 | 0.00 | 0.00 | 69 | 1020.3 | |
| 20260901232017 | 89 | 0.0 | 0.0 | 0.00 | 0.00 | 0.00 | 66 | 1020.4 | |
| 20260901231522 | 89 | 0.0 | 0.0 | 0.00 | 0.00 | 0.00 | 66 | 1020.4 | |
| 20260901231019 | 90 | 0.0 | 0.0 | 0.00 | 0.00 | 0.00 | 66 | 1020.4 | |
| 20260901230517 | 90 | 0.0 | 1.0 | 0.00 | 0.00 | 0.00 | 64 | 1020.4 | |
| 20260901230017 | 90 | 0.0 | 0.0 | 0.00 | 0.00 | 0.00 | 65 | 1020.4 | |
| 20260901225516 | 90 | 0.0 | 0.0 | 0.00 | 0.00 | 0.00 | 66 | 1020.3 | |
| 20260901225022 | 91 | 0.0 | 1.0 | 0.00 | 0.00 | 0.00 | 63 | 1020.1 | |
| 20260901224520 | 91 | 0.0 | 0.0 | 0.00 | 0.00 | 0.00 | 64 | 1020.0 | |
| 20260901224020 | 91 | 0.0 | 0.0 | 0.00 | 0.00 | 0.00 | 61 | 1020.0 | |
| 20260901223520 | 91 | 23 | 1.0 | 2.0 | 0.00 | 0.00 | 0.00 | 62 | 1020.2 |
| 20260901223018 | 92 | 0.0 | 0.0 | 0.00 | 0.00 | 0.00 | 62 | 1020.2 | |
| 20260901222516 | 92 | 0.0 | 1.0 | 0.00 | 0.00 | 0.00 | 61 | 1020.2 | |
| 20260901222018 | 92 | 0.0 | 1.0 | 0.00 | 0.00 | 0.00 | 61 | 1020.3 | |
| 20260901221518 | 92 | 0.0 | 0.0 | 0.00 | 0.00 | 0.00 | 63 | 1020.2 | |
| 20260901221019 | 92 | 0.0 | 0.0 | 0.00 | 0.00 | 0.00 | 62 | 1020.0 | |
| 20260901220518 | 92 | 0.0 | 0.0 | 0.00 | 0.00 | 0.00 | 62 | 1019.9 | |
| 20260901220018 | 92 | 0.0 | 0.0 | 0.00 | 0.00 | 0.00 | 60 | 1019.9 | |
| 20260901215518 | 92 | 0.0 | 1.0 | 0.00 | 0.00 | 0.00 | 59 | 1020.1 | |
| 20260901215016 | 92 | 0.0 | 1.0 | 0.00 | 0.00 | 0.00 | 62 | 1020.2 | |
| 20260901214519 | 92 | 338 | 1.0 | 1.0 | 0.00 | 0.00 | 0.00 | 60 | 1020.1 |
| 20260901214018 | 92 | 0.0 | 2.0 | 0.00 | 0.00 | 0.00 | 61 | 1020.2 | |
| 20260901213518 | 92 | 0.0 | 1.0 | 0.00 | 0.00 | 0.00 | 61 | 1020.2 | |
| 20260901213016 | 92 | 0.0 | 0.0 | 0.00 | 0.00 | 0.00 | 65 | 1020.2 | |
| 20260901212516 | 92 | 0.0 | 0.0 | 0.00 | 0.00 | 0.00 | 64 | 1020.4 | |
| 20260901212019 | 91 | 0.0 | 1.0 | 0.00 | 0.00 | 0.00 | 66 | 1020.4 | |
| 20260901211519 | 90 | 0.0 | 0.0 | 0.00 | 0.00 | 0.00 | 69 | 1020.3 | |
| 20260901211018 | 90 | 0.0 | 0.0 | 0.00 | 0.00 | 0.00 | 65 | 1020.4 | |
| 20260901210517 | 90 | 0.0 | 0.0 | 0.00 | 0.00 | 0.00 | 68 | 1020.5 | |
| 20260901210019 | 90 | 0.0 | 0.0 | 0.00 | 0.00 | 0.00 | 66 | 1020.5 | |
| 20260901205521 | 91 | 0.0 | 1.0 | 0.00 | 0.00 | 0.00 | 65 | 1020.7 | |
| 20260901205019 | 91 | 0.0 | 0.0 | 0.00 | 0.00 | 0.00 | 65 | 1020.7 | |
| 20260901204516 | 91 | 0.0 | 0.0 | 0.00 | 0.00 | 0.00 | 62 | 1020.7 | |
| 20260901204016 | 91 | 0.0 | 1.0 | 0.00 | 0.00 | 0.00 | 61 | 1020.6 | |
| 20260901203520 | 92 | 0.0 | 1.0 | 0.00 | 0.00 | 0.00 | 62 | 1020.8 | |
| 20260901203017 | 92 | 23 | 2.0 | 4.0 | 0.00 | 0.00 | 0.00 | 61 | 1020.7 |
| 20260901202516 | 92 | 0.0 | 0.0 | 0.00 | 0.00 | 0.00 | 61 | 1020.7 | |
| 20260901202018 | 92 | 68 | 1.0 | 2.0 | 0.00 | 0.00 | 0.00 | 59 | 1020.7 |
| 20260901201516 | 93 | 0.0 | 1.0 | 0.00 | 0.00 | 0.00 | 58 | 1020.8 | |
| 20260901201016 | 93 | 23 | 1.0 | 2.0 | 0.00 | 0.00 | 0.00 | 58 | 1020.9 |
| 20260901200518 | 94 | 0.0 | 0.0 | 0.00 | 0.00 | 0.00 | 57 | 1021.0 | |
| 20260901200016 | 96 | 0 | 2.0 | 3.0 | 0.00 | 0.00 | 0.00 | 55 | 1021.0 |
| 20260901195520 | 97 | 0.0 | 1.0 | 0.00 | 0.00 | 0.00 | 52 | 1021.1 | |
| 20260901195021 | 96 | 180 | 1.0 | 1.0 | 0.00 | 0.00 | 0.00 | 54 | 1021.2 |
| 20260901194516 | 95 | 203 | 2.0 | 2.0 | 0.00 | 0.00 | 0.00 | 57 | 1021.1 |
| 20260901194018 | 95 | 0.0 | 1.0 | 0.00 | 0.00 | 0.00 | 54 | 1021.2 | |
| 20260901193522 | 94 | 270 | 1.0 | 2.0 | 0.00 | 0.00 | 0.00 | 56 | 1021.2 |
| 20260901193016 | 93 | 0.0 | 1.0 | 0.00 | 0.00 | 0.00 | 62 | 1021.4 | |
| 20260901192520 | 92 | 0.0 | 0.0 | 0.00 | 0.00 | 0.00 | 59 | 1021.5 | |
| 20260901192017 | 93 | 0.0 | 1.0 | 0.00 | 0.00 | 0.00 | 60 | 1021.6 | |
| 20260901191521 | 94 | 90 | 1.0 | 2.0 | 0.00 | 0.00 | 0.00 | 55 | 1021.6 |
| 20260901191018 | 96 | 0.0 | 1.0 | 0.00 | 0.00 | 0.00 | 56 | 1021.7 | |
| 20260901190519 | 96 | 113 | 1.0 | 2.0 | 0.00 | 0.00 | 0.00 | 54 | 1021.7 |
| 20260901190019 | 96 | 68 | 1.0 | 2.0 | 0.00 | 0.00 | 0.00 | 54 | 1021.7 |
| 20260901185515 | 96 | 270 | 2.0 | 4.0 | 0.00 | 0.00 | 0.00 | 54 | 1021.8 |
| 20260901185016 | 96 | 135 | 1.0 | 1.0 | 0.00 | 0.00 | 0.00 | 57 | 1021.9 |
| 20260901184519 | 95 | 338 | 1.0 | 1.0 | 0.00 | 0.00 | 0.00 | 63 | 1021.9 |
| 20260901184020 | 94 | 135 | 1.0 | 1.0 | 0.00 | 0.00 | 0.00 | 61 | 1021.9 |
| 20260901183516 | 94 | 225 | 2.0 | 3.0 | 0.00 | 0.00 | 0.00 | 59 | 1021.9 |
| 20260901183016 | 93 | 225 | 1.0 | 1.0 | 0.00 | 0.00 | 0.00 | 61 | 1021.9 |
| 20260901182516 | 92 | 113 | 1.0 | 2.0 | 0.00 | 0.00 | 0.00 | 60 | 1021.9 |
| 20260901182019 | 92 | 90 | 1.0 | 2.0 | 0.00 | 0.00 | 0.00 | 59 | 1021.9 |
| 20260901181517 | 93 | 135 | 1.0 | 1.0 | 0.00 | 0.00 | 0.00 | 57 | 1022.1 |
| 20260901181016 | 93 | 113 | 1.0 | 2.0 | 0.00 | 0.00 | 0.00 | 60 | 1022.1 |
| 20260901180516 | 93 | 225 | 1.0 | 1.0 | 0.00 | 0.00 | 0.00 | 62 | 1022.1 |
| 20260901180016 | 92 | 90 | 2.0 | 2.0 | 0.00 | 0.00 | 0.00 | 62 | 1022.2 |
| 20260901175519 | 92 | 225 | 1.0 | 1.0 | 0.00 | 0.00 | 0.00 | 63 | 1022.2 |
| 20260901175020 | 92 | 0.0 | 2.0 | 0.00 | 0.00 | 0.00 | 62 | 1022.3 | |
| 20260901174517 | 92 | 113 | 1.0 | 2.0 | 0.00 | 0.00 | 0.00 | 62 | 1022.4 |
| 20260901174021 | 93 | 90 | 4.0 | 5.0 | 0.00 | 0.00 | 0.00 | 60 | 1022.4 |
| 20260901173518 | 93 | 113 | 1.0 | 2.0 | 0.00 | 0.00 | 0.00 | 60 | 1022.6 |
| 20260901173022 | 93 | 68 | 1.0 | 2.0 | 0.00 | 0.00 | 0.00 | 61 | 1022.7 |
| 20260901172520 | 92 | 203 | 1.0 | 2.0 | 0.00 | 0.00 | 0.00 | 63 | 1022.8 |
| 20260901172018 | 92 | 225 | 1.0 | 2.0 | 0.00 | 0.00 | 0.00 | 64 | 1022.9 |
| 20260901171521 | 91 | 0.0 | 1.0 | 0.00 | 0.00 | 0.00 | 63 | 1022.9 | |
| 20260901171022 | 91 | 0.0 | 1.0 | 0.00 | 0.00 | 0.00 | 64 | 1023.1 | |
| 20260901170518 | 91 | 0.0 | 0.0 | 0.00 | 0.00 | 0.00 | 68 | 1023.0 | |
| 20260901170020 | 91 | 180 | 1.0 | 1.0 | 0.00 | 0.00 | 0.00 | 66 | 1023.2 |
| 20260901165521 | 91 | 248 | 1.0 | 2.0 | 0.00 | 0.00 | 0.00 | 68 | 1023.2 |
| 20260901165018 | 91 | 90 | 2.0 | 4.0 | 0.00 | 0.00 | 0.00 | 66 | 1023.2 |
| 20260901164522 | 91 | 90 | 1.0 | 1.0 | 0.00 | 0.00 | 0.00 | 68 | 1023.2 |
| 20260901164021 | 90 | 248 | 2.0 | 2.0 | 0.00 | 0.00 | 0.00 | 68 | 1023.3 |
| 20260901163518 | 90 | 0 | 1.0 | 1.0 | 0.00 | 0.00 | 0.00 | 70 | 1023.3 |
| 20260901163020 | 89 | 270 | 1.0 | 2.0 | 0.00 | 0.00 | 0.00 | 69 | 1023.3 |
| 20260901162518 | 89 | 0 | 1.0 | 3.0 | 0.00 | 0.00 | 0.00 | 70 | 1023.3 |
| 20260901162020 | 89 | 113 | 1.0 | 1.0 | 0.00 | 0.00 | 0.00 | 72 | 1023.4 |
| 20260901161522 | 88 | 338 | 1.0 | 2.0 | 0.00 | 0.00 | 0.00 | 72 | 1023.4 |
| 20260901161022 | 88 | 0 | 3.0 | 4.0 | 0.00 | 0.00 | 0.00 | 71 | 1023.4 |
| 20260901160522 | 88 | 248 | 2.0 | 4.0 | 0.00 | 0.00 | 0.00 | 73 | 1023.5 |
| 20260901160020 | 87 | 0.0 | 1.0 | 0.00 | 0.00 | 0.00 | 73 | 1023.6 | |
| 20260901155525 | 87 | 293 | 1.0 | 2.0 | 0.00 | 0.00 | 0.00 | 75 | 1023.6 |
| 20260901155021 | 87 | 270 | 2.0 | 5.0 | 0.00 | 0.00 | 0.00 | 73 | 1023.5 |
| 20260901154523 | 87 | 0.0 | 1.0 | 0.00 | 0.00 | 0.00 | 75 | 1023.6 | |
| 20260901154021 | 86 | 0 | 1.0 | 2.0 | 0.00 | 0.00 | 0.00 | 76 | 1023.6 |
| 20260901153521 | 86 | 0.0 | 1.0 | 0.00 | 0.00 | 0.00 | 77 | 1023.7 | |
| 20260901153020 | 85 | 0.0 | 1.0 | 0.00 | 0.00 | 0.00 | 76 | 1023.7 | |
| 20260901152520 | 85 | 0.0 | 1.0 | 0.00 | 0.00 | 0.00 | 77 | 1023.6 | |
| 20260901152020 | 84 | 0.0 | 1.0 | 0.00 | 0.00 | 0.00 | 76 | 1023.6 | |
| 20260901151521 | 84 | 225 | 1.0 | 4.0 | 0.00 | 0.00 | 0.00 | 78 | 1023.6 |
| 20260901151020 | 83 | 68 | 1.0 | 2.0 | 0.00 | 0.00 | 0.00 | 78 | 1023.6 |
| 20260901150521 | 83 | 0.0 | 1.0 | 0.00 | 0.00 | 0.00 | 78 | 1023.5 | |
| 20260901150020 | 83 | 203 | 1.0 | 2.0 | 0.00 | 0.00 | 0.00 | 79 | 1023.6 |
| 20260901145521 | 83 | 248 | 1.0 | 1.0 | 0.00 | 0.00 | 0.00 | 80 | 1023.5 |
| 20260901145022 | 82 | 0.0 | 0.0 | 0.00 | 0.00 | 0.00 | 81 | 1023.5 | |
| 20260901144520 | 82 | 0.0 | 0.0 | 0.00 | 0.00 | 0.00 | 81 | 1023.7 | |
| 20260901144022 | 81 | 0.0 | 0.0 | 0.00 | 0.00 | 0.00 | 82 | 1023.7 | |
| 20260901143517 | 81 | 0.0 | 0.0 | 0.00 | 0.00 | 0.00 | 83 | 1023.7 | |
| 20260901143020 | 81 | 203 | 1.0 | 1.0 | 0.00 | 0.00 | 0.00 | 83 | 1023.8 |
| 20260901142520 | 80 | 0.0 | 1.0 | 0.00 | 0.00 | 0.00 | 83 | 1023.8 | |
| 20260901142021 | 80 | 225 | 1.0 | 2.0 | 0.00 | 0.00 | 0.00 | 83 | 1023.8 |
| 20260901141522 | 80 | 0.0 | 0.0 | 0.00 | 0.00 | 0.00 | 83 | 1023.7 | |
| 20260901141024 | 80 | 0.0 | 1.0 | 0.00 | 0.00 | 0.00 | 83 | 1023.7 | |
| 20260901140518 | 80 | 0.0 | 0.0 | 0.00 | 0.00 | 0.00 | 84 | 1023.7 | |
| 20260901140021 | 79 | 0.0 | 0.0 | 0.00 | 0.00 | 0.00 | 83 | 1023.6 | |
| 20260901135525 | 79 | 203 | 1.0 | 1.0 | 0.00 | 0.00 | 0.00 | 83 | 1023.7 |
| 20260901135020 | 79 | 0.0 | 0.0 | 0.00 | 0.00 | 0.00 | 84 | 1023.7 | |
| 20260901134520 | 79 | 0.0 | 0.0 | 0.00 | 0.00 | 0.00 | 83 | 1023.6 | |
| 20260901134025 | 80 | 0.0 | 0.0 | 0.00 | 0.00 | 0.00 | 84 | 1023.8 | |
| 20260901133521 | 80 | 0.0 | 0.0 | 0.00 | 0.00 | 0.00 | 84 | 1023.8 | |
| 20260901133021 | 80 | 0.0 | 0.0 | 0.00 | 0.00 | 0.00 | 85 | 1023.8 | |
| 20260901132517 | 80 | 0.0 | 1.0 | 0.00 | 0.00 | 0.00 | 84 | 1023.8 | |
| 20260901132021 | 79 | 0.0 | 0.0 | 0.00 | 0.00 | 0.00 | 85 | 1023.9 | |
| 20260901131517 | 79 | 0.0 | 0.0 | 0.00 | 0.00 | 0.00 | 86 | 1023.9 | |
| 20260901131021 | 79 | 0.0 | 0.0 | 0.00 | 0.00 | 0.00 | 85 | 1024.0 | |
| 20260901130522 | 79 | 0.0 | 1.0 | 0.00 | 0.00 | 0.00 | 88 | 1024.0 | |
| 20260901130020 | 78 | 0.0 | 0.0 | 0.00 | 0.00 | 0.00 | 92 | 1023.9 | |
| 20260901125524 | 76 | 0.0 | 0.0 | 0.00 | 0.00 | 0.00 | 96 | 1023.9 | |
| 20260901125021 | 74 | 0.0 | 0.0 | 0.00 | 0.00 | 0.00 | 97 | 1023.8 | |
| 20260901124521 | 73 | 0.0 | 0.0 | 0.00 | 0.00 | 0.00 | 97 | 1023.7 | |
| 20260901124017 | 72 | 0.0 | 1.0 | 0.00 | 0.00 | 0.00 | 97 | 1023.7 | |
| 20260901123522 | 72 | 0.0 | 0.0 | 0.00 | 0.00 | 0.00 | 98 | 1023.7 | |
| 20260901123022 | 72 | 0.0 | 0.0 | 0.00 | 0.00 | 0.00 | 98 | 1023.6 | |
| 20260901122517 | 71 | 0.0 | 0.0 | 0.00 | 0.00 | 0.00 | 98 | 1023.5 | |
| 20260901122024 | 71 | 0.0 | 0.0 | 0.00 | 0.00 | 0.00 | 98 | 1023.5 | |
| 20260901121519 | 71 | 0.0 | 0.0 | 0.00 | 0.00 | 0.00 | 98 | 1023.4 | |
| 20260901121017 | 71 | 0.0 | 0.0 | 0.00 | 0.00 | 0.00 | 98 | 1023.5 | |
| 20260901120520 | 71 | 0.0 | 0.0 | 0.00 | 0.00 | 0.00 | 98 | 1023.4 | |
| 20260901120020 | 71 | 0.0 | 0.0 | 0.00 | 0.00 | 0.00 | 98 | 1023.5 | |
| 20260901115518 | 71 | 0.0 | 0.0 | 0.00 | 0.00 | 0.00 | 98 | 1023.2 | |
| 20260901115021 | 70 | 0.0 | 0.0 | 0.00 | 0.00 | 0.00 | 98 | 1023.1 | |
| 20260901114518 | 70 | 0.0 | 0.0 | 0.00 | 0.00 | 0.00 | 98 | 1023.0 | |
| 20260901114021 | 70 | 0.0 | 0.0 | 0.00 | 0.00 | 0.00 | 98 | 1022.9 | |
| 20260901113522 | 70 | 0.0 | 0.0 | 0.00 | 0.00 | 0.00 | 98 | 1022.9 | |
| 20260901113021 | 70 | 0.0 | 0.0 | 0.00 | 0.00 | 0.00 | 98 | 1022.7 | |
| 20260901112520 | 70 | 0.0 | 0.0 | 0.00 | 0.00 | 0.00 | 98 | 1022.7 | |
| 20260901112017 | 70 | 0.0 | 0.0 | 0.00 | 0.00 | 0.00 | 98 | 1022.7 | |
| 20260901111520 | 70 | 0.0 | 0.0 | 0.00 | 0.00 | 0.00 | 98 | 1022.5 | |
| 20260901111018 | 70 | 0.0 | 0.0 | 0.00 | 0.00 | 0.00 | 97 | 1022.5 | |
| 20260901110517 | 70 | 0.0 | 0.0 | 0.00 | 0.00 | 0.00 | 98 | 1022.5 | |
| 20260901110020 | 70 | 0.0 | 0.0 | 0.00 | 0.00 | 0.00 | 98 | 1022.5 | |
| 20260901105522 | 70 | 0.0 | 0.0 | 0.00 | 0.00 | 0.00 | 97 | 1022.4 | |
| 20260901105020 | 70 | 0.0 | 0.0 | 0.00 | 0.00 | 0.00 | 97 | 1022.3 | |
| 20260901104521 | 70 | 0.0 | 0.0 | 0.00 | 0.00 | 0.00 | 97 | 1022.2 | |
| 20260901104019 | 70 | 0.0 | 0.0 | 0.00 | 0.00 | 0.00 | 97 | 1022.3 | |
| 20260901103520 | 70 | 0.0 | 0.0 | 0.00 | 0.00 | 0.00 | 97 | 1022.1 | |
| 20260901103020 | 70 | 0.0 | 0.0 | 0.00 | 0.00 | 0.00 | 97 | 1022.1 | |
| 20260901102518 | 71 | 0.0 | 0.0 | 0.00 | 0.00 | 0.00 | 97 | 1022.1 | |
| 20260901102017 | 71 | 0.0 | 0.0 | 0.00 | 0.00 | 0.00 | 97 | 1022.2 | |
| 20260901101520 | 71 | 0.0 | 0.0 | 0.00 | 0.00 | 0.00 | 97 | 1022.1 | |
| 20260901101018 | 71 | 0.0 | 0.0 | 0.00 | 0.00 | 0.00 | 97 | 1022.0 | |
| 20260901100519 | 71 | 0.0 | 0.0 | 0.00 | 0.00 | 0.00 | 97 | 1022.0 | |
| 20260901100021 | 71 | 0.0 | 0.0 | 0.00 | 0.00 | 0.00 | 97 | 1022.0 | |
| 20260901095518 | 71 | 0.0 | 0.0 | 0.00 | 0.00 | 0.00 | 97 | 1022.0 | |
| 20260901095022 | 71 | 0.0 | 0.0 | 0.00 | 0.00 | 0.00 | 97 | 1022.0 | |
| 20260901094519 | 71 | 0.0 | 0.0 | 0.00 | 0.00 | 0.00 | 97 | 1022.0 | |
| 20260901094020 | 71 | 0.0 | 0.0 | 0.00 | 0.00 | 0.00 | 97 | 1022.0 | |
| 20260901093521 | 71 | 0.0 | 0.0 | 0.00 | 0.00 | 0.00 | 97 | 1021.9 | |
| 20260901093018 | 71 | 0.0 | 0.0 | 0.00 | 0.00 | 0.00 | 97 | 1021.9 | |
| 20260901092521 | 71 | 0.0 | 0.0 | 0.00 | 0.00 | 0.00 | 97 | 1021.9 | |
| 20260901092021 | 71 | 0.0 | 0.0 | 0.00 | 0.00 | 0.00 | 97 | 1021.9 | |
| 20260901091521 | 71 | 0.0 | 0.0 | 0.00 | 0.00 | 0.00 | 97 | 1021.8 | |
| 20260901091020 | 71 | 0.0 | 0.0 | 0.00 | 0.00 | 0.00 | 97 | 1021.9 | |
| 20260901090523 | 71 | 0.0 | 0.0 | 0.00 | 0.00 | 0.00 | 97 | 1021.9 | |
| 20260901090021 | 71 | 0.0 | 0.0 | 0.00 | 0.00 | 0.00 | 97 | 1021.8 | |
| 20260901085517 | 71 | 0.0 | 0.0 | 0.00 | 0.00 | 0.00 | 97 | 1021.7 | |
| 20260901085020 | 71 | 0.0 | 0.0 | 0.00 | 0.00 | 0.00 | 97 | 1021.8 | |
| 20260901084517 | 71 | 0.0 | 0.0 | 0.00 | 0.00 | 0.00 | 97 | 1021.8 | |
| 20260901084022 | 71 | 0.0 | 0.0 | 0.00 | 0.00 | 0.00 | 97 | 1021.6 | |
| 20260901083520 | 71 | 0.0 | 0.0 | 0.00 | 0.00 | 0.00 | 97 | 1021.5 | |
| 20260901083018 | 72 | 0.0 | 0.0 | 0.00 | 0.00 | 0.00 | 97 | 1021.6 | |
| 20260901082517 | 72 | 0.0 | 0.0 | 0.00 | 0.00 | 0.00 | 96 | 1021.6 | |
| 20260901082021 | 72 | 0.0 | 0.0 | 0.00 | 0.00 | 0.00 | 96 | 1021.7 | |
| 20260901081517 | 72 | 0.0 | 0.0 | 0.00 | 0.00 | 0.00 | 96 | 1021.9 | |
| 20260901081020 | 72 | 0.0 | 0.0 | 0.00 | 0.00 | 0.00 | 96 | 1021.8 | |
| 20260901080521 | 72 | 0.0 | 0.0 | 0.00 | 0.00 | 0.00 | 96 | 1021.9 | |
| 20260901080021 | 72 | 0.0 | 0.0 | 0.00 | 0.00 | 0.00 | 96 | 1021.8 | |
| 20260901075523 | 72 | 0.0 | 0.0 | 0.00 | 0.00 | 0.00 | 96 | 1021.9 | |
| 20260901075018 | 72 | 0.0 | 0.0 | 0.00 | 0.00 | 0.00 | 96 | 1022.0 | |
| 20260901074517 | 72 | 0.0 | 0.0 | 0.00 | 0.00 | 0.00 | 96 | 1022.0 | |
| 20260901074018 | 72 | 0.0 | 0.0 | 0.00 | 0.00 | 0.00 | 96 | 1021.9 | |
| 20260901073518 | 72 | 0.0 | 0.0 | 0.00 | 0.00 | 0.00 | 95 | 1022.0 | |
| 20260901073017 | 73 | 0.0 | 0.0 | 0.00 | 0.00 | 0.00 | 96 | 1022.0 | |
| 20260901072521 | 73 | 0.0 | 0.0 | 0.00 | 0.00 | 0.00 | 96 | 1021.9 | |
| 20260901072021 | 73 | 0.0 | 0.0 | 0.00 | 0.00 | 0.00 | 95 | 1022.0 | |
| 20260901071521 | 73 | 0.0 | 0.0 | 0.00 | 0.00 | 0.00 | 95 | 1022.2 | |
| 20260901071020 | 73 | 0.0 | 0.0 | 0.00 | 0.00 | 0.00 | 95 | 1022.0 | |
| 20260901070519 | 73 | 0.0 | 0.0 | 0.00 | 0.00 | 0.00 | 95 | 1021.9 | |
| 20260901070020 | 73 | 0.0 | 0.0 | 0.00 | 0.00 | 0.00 | 95 | 1021.9 | |
| 20260901065520 | 73 | 0.0 | 0.0 | 0.00 | 0.00 | 0.00 | 95 | 1022.0 | |
| 20260901065022 | 73 | 0.0 | 0.0 | 0.00 | 0.00 | 0.00 | 95 | 1022.0 | |
| 20260901064521 | 73 | 0.0 | 0.0 | 0.00 | 0.00 | 0.00 | 94 | 1022.0 | |
| 20260901064020 | 73 | 0.0 | 0.0 | 0.00 | 0.00 | 0.00 | 95 | 1022.0 | |
| 20260901063517 | 73 | 0.0 | 0.0 | 0.00 | 0.00 | 0.00 | 95 | 1022.0 | |
| 20260901063018 | 73 | 0.0 | 0.0 | 0.00 | 0.00 | 0.00 | 94 | 1022.1 | |
| 20260901062521 | 73 | 0.0 | 0.0 | 0.00 | 0.00 | 0.00 | 94 | 1022.1 | |
| 20260901062019 | 73 | 0.0 | 0.0 | 0.00 | 0.00 | 0.00 | 94 | 1022.2 | |
| 20260901061521 | 73 | 0.0 | 0.0 | 0.00 | 0.00 | 0.00 | 94 | 1022.3 | |
| 20260901061017 | 73 | 0.0 | 0.0 | 0.00 | 0.00 | 0.00 | 94 | 1022.3 | |
| 20260901060517 | 73 | 0.0 | 0.0 | 0.00 | 0.00 | 0.00 | 94 | 1022.3 | |
| 20260901060020 | 73 | 0.0 | 0.0 | 0.00 | 0.00 | 0.00 | 93 | 1022.2 | |
| 20260901055519 | 74 | 0.0 | 0.0 | 0.00 | 0.00 | 0.00 | 93 | 1022.3 | |
| 20260901055019 | 74 | 0.0 | 0.0 | 0.00 | 0.00 | 0.00 | 93 | 1022.4 | |
| 20260901054522 | 74 | 0.0 | 0.0 | 0.00 | 0.00 | 0.00 | 93 | 1022.3 | |
| 20260901054020 | 74 | 0.0 | 0.0 | 0.00 | 0.00 | 0.00 | 93 | 1022.4 | |
| 20260901053520 | 74 | 0.0 | 0.0 | 0.00 | 0.00 | 0.00 | 92 | 1022.5 | |
| 20260901053020 | 74 | 0.0 | 0.0 | 0.00 | 0.00 | 0.00 | 93 | 1022.5 | |
| 20260901052520 | 74 | 0.0 | 0.0 | 0.00 | 0.00 | 0.00 | 93 | 1022.3 | |
| 20260901052019 | 74 | 0.0 | 0.0 | 0.00 | 0.00 | 0.00 | 93 | 1022.4 | |
| 20260901051519 | 74 | 0.0 | 0.0 | 0.00 | 0.00 | 0.00 | 93 | 1022.5 | |
| 20260901051019 | 74 | 0.0 | 0.0 | 0.00 | 0.00 | 0.00 | 93 | 1022.4 | |
| 20260901050520 | 74 | 0.0 | 0.0 | 0.00 | 0.00 | 0.00 | 92 | 1022.4 | |
| 20260901050017 | 75 | 0.0 | 0.0 | 0.00 | 0.00 | 0.00 | 92 | 1022.4 | |
| 20260901045518 | 75 | 0.0 | 0.0 | 0.00 | 0.00 | 0.00 | 92 | 1022.3 | |
| 20260901045021 | 75 | 0.0 | 0.0 | 0.00 | 0.00 | 0.00 | 91 | 1022.2 | |
| 20260901044518 | 75 | 0.0 | 0.0 | 0.00 | 0.00 | 0.00 | 91 | 1022.1 | |
| 20260901044018 | 75 | 0.0 | 0.0 | 0.00 | 0.00 | 0.00 | 91 | 1022.1 | |
| 20260901043517 | 75 | 0.0 | 0.0 | 0.00 | 0.00 | 0.00 | 91 | 1022.0 | |
| 20260901043024 | 75 | 0.0 | 0.0 | 0.00 | 0.00 | 0.00 | 90 | 1022.0 | |
| 20260901042517 | 75 | 0.0 | 0.0 | 0.00 | 0.00 | 0.00 | 90 | 1021.9 | |
| 20260901042023 | 76 | 0.0 | 0.0 | 0.00 | 0.00 | 0.00 | 90 | 1022.0 | |
| 20260901041522 | 76 | 0.0 | 0.0 | 0.00 | 0.00 | 0.00 | 90 | 1022.0 | |
| 20260901041017 | 76 | 0.0 | 0.0 | 0.00 | 0.00 | 0.00 | 89 | 1021.9 | |
| 20260901040521 | 76 | 0.0 | 0.0 | 0.00 | 0.00 | 0.00 | 90 | 1021.9 | |
| 20260901040020 | 76 | 0.0 | 0.0 | 0.00 | 0.00 | 0.00 | 90 | 1022.0 | |
| 20260901035516 | 76 | 0.0 | 0.0 | 0.00 | 0.00 | 0.00 | 90 | 1022.0 | |
| 20260901035019 | 76 | 0.0 | 0.0 | 0.00 | 0.00 | 0.00 | 90 | 1021.8 | |
| 20260901034519 | 76 | 0.0 | 0.0 | 0.00 | 0.00 | 0.00 | 90 | 1021.8 | |
| 20260901034019 | 76 | 0.0 | 0.0 | 0.00 | 0.00 | 0.00 | 90 | 1021.7 | |
| 20260901033517 | 76 | 0.0 | 0.0 | 0.00 | 0.00 | 0.00 | 89 | 1021.7 | |
| 20260901033020 | 76 | 0.0 | 0.0 | 0.00 | 0.00 | 0.00 | 89 | 1021.6 | |
| 20260901032518 | 76 | 0.0 | 0.0 | 0.00 | 0.00 | 0.00 | 89 | 1021.8 | |
| 20260901032019 | 76 | 0.0 | 0.0 | 0.00 | 0.00 | 0.00 | 88 | 1021.7 | |
| 20260901031519 | 76 | 0.0 | 0.0 | 0.00 | 0.00 | 0.00 | 88 | 1021.7 | |
| 20260901031017 | 77 | 0.0 | 0.0 | 0.00 | 0.00 | 0.00 | 88 | 1021.5 | |
| 20260901030519 | 77 | 0.0 | 0.0 | 0.00 | 0.00 | 0.00 | 88 | 1021.6 | |
| 20260901030016 | 77 | 0.0 | 0.0 | 0.00 | 0.00 | 0.00 | 88 | 1021.6 | |
| 20260901025519 | 77 | 0.0 | 0.0 | 0.00 | 0.00 | 0.00 | 87 | 1021.5 | |
| 20260901025021 | 77 | 0.0 | 0.0 | 0.00 | 0.00 | 0.00 | 87 | 1021.5 | |
| 20260901024521 | 77 | 0.0 | 0.0 | 0.00 | 0.00 | 0.00 | 87 | 1021.5 | |
| 20260901024016 | 77 | 0.0 | 0.0 | 0.00 | 0.00 | 0.00 | 87 | 1021.4 | |
| 20260901023519 | 77 | 0.0 | 0.0 | 0.00 | 0.00 | 0.00 | 86 | 1021.5 | |
| 20260901023020 | 77 | 0.0 | 0.0 | 0.00 | 0.00 | 0.00 | 86 | 1021.5 | |
| 20260901022517 | 78 | 0.0 | 0.0 | 0.00 | 0.00 | 0.00 | 86 | 1021.5 | |
| 20260901022017 | 78 | 0.0 | 0.0 | 0.00 | 0.00 | 0.00 | 86 | 1021.5 | |
| 20260901021520 | 78 | 0.0 | 0.0 | 0.00 | 0.00 | 0.00 | 86 | 1021.6 | |
| 20260901021016 | 78 | 0.0 | 0.0 | 0.00 | 0.00 | 0.00 | 85 | 1021.5 | |
| 20260901020521 | 78 | 0.0 | 0.0 | 0.00 | 0.00 | 0.00 | 85 | 1021.5 | |
| 20260901020018 | 78 | 0.0 | 0.0 | 0.00 | 0.00 | 0.00 | 84 | 1021.5 | |
| 20260901015520 | 78 | 0.0 | 0.0 | 0.00 | 0.00 | 0.00 | 84 | 1021.5 | |
| 20260901015020 | 78 | 0.0 | 0.0 | 0.00 | 0.00 | 0.00 | 83 | 1021.4 | |
| 20260901014520 | 78 | 0.0 | 0.0 | 0.00 | 0.00 | 0.00 | 83 | 1021.3 | |
| 20260901014018 | 79 | 0.0 | 0.0 | 0.00 | 0.00 | 0.00 | 83 | 1021.4 | |
| 20260901013520 | 79 | 0.0 | 0.0 | 0.00 | 0.00 | 0.00 | 82 | 1021.3 | |
| 20260901013020 | 79 | 0.0 | 0.0 | 0.00 | 0.00 | 0.00 | 82 | 1021.2 | |
| 20260901012519 | 79 | 0.0 | 0.0 | 0.00 | 0.00 | 0.00 | 82 | 1021.2 | |
| 20260901012019 | 79 | 0.0 | 0.0 | 0.00 | 0.00 | 0.00 | 82 | 1021.1 | |
| 20260901011519 | 80 | 0.0 | 0.0 | 0.00 | 0.00 | 0.00 | 82 | 1021.2 | |
| 20260901011016 | 80 | 0.0 | 0.0 | 0.00 | 0.00 | 0.00 | 81 | 1021.0 | |
| 20260901010517 | 80 | 0.0 | 0.0 | 0.00 | 0.00 | 0.00 | 80 | 1020.9 | |
| 20260901010022 | 80 | 0.0 | 0.0 | 0.00 | 0.00 | 0.00 | 79 | 1020.8 | |
| 20260901005519 | 81 | 0.0 | 0.0 | 0.00 | 0.00 | 0.00 | 79 | 1020.8 | |
| 20260901005018 | 81 | 0.0 | 0.0 | 0.00 | 0.00 | 0.00 | 78 | 1020.8 | |
| 20260901004521 | 81 | 0.0 | 0.0 | 0.00 | 0.00 | 0.00 | 78 | 1020.8 | |
| 20260901004019 | 81 | 0.0 | 1.0 | 0.00 | 0.00 | 0.00 | 78 | 1020.7 | |
| 20260901003519 | 81 | 0.0 | 0.0 | 0.00 | 0.00 | 0.00 | 78 | 1020.6 |